Weather in Ahmadpur East

Pakistan     29°07′10″N   71°16′04″E
temp.,
°C
wind,
m/s
gust,
m/s
humid.,
%
clouds,
%
prec.,
mm/h
press.,
hPa
HPBL,
m
8 march, mon
mon823:00+24ne56280 0.0 100874
02:00+21nne58360 0.0 1008103
05:00+16nne12450 0.0 100825
08:00+21nne56387 0.0 1012219
11:00+30nne67253 0.0 1012819
14:00+34ne32170 0.0 10102437
17:00+34e11150 0.0 10083505
20:00+26n45230 0.0 101029
9 march, tue
tue923:00+24nne69280 0.0 1011149
02:00+22nne511300 0.0 1010210
05:00+20n58360 0.0 1011131
08:00+22nne58350 0.0 1013260
11:00+32ne56170 0.0 1014859
14:00+35e33130 0.0 10103796
17:00+35se12120 0.0 10084041
20:00+25n22210 0.0 101024
10 march, wed
wed1023:00+24ne45213 0.0 101068
02:00+23ne45250 0.0 101062
05:00+21ene45250 0.0 101079
08:00+23ne45230 0.0 1012147
11:00+32ene23120 0.0 1012757
14:00+36se34100 0.0 10083674
17:00+35sse2390 0.0 10063445
20:00+26sw23160 0.0 100824
11 march, thu
thu1123:00+22nne00200 0.0 100824
02:00+22nnw23210 0.0 100724
05:00+18ssw11260 0.0 100723
08:00+23sw45230 0.0 1009133
11:00+32sw23130 0.0 1010590
14:00+36s4490 0.0 10072693
17:00+35s4490 0.0 10053021
20:00+29sse5680 0.0 100667
12 march, fri
fri1223:00+27sse4580 0.0 100829
02:00+21nne56250 0.0 100872
05:00+18nne45430 0.0 100878
08:00+20n574293 0.0 1011286
11:00+28nne552547 0.0 1012838
14:00+33nnw12190 0.0 10101963
17:00+33nnw33150 0.0 10092420
20:00+25nne34270 0.0 101025